Terug naar catalogus

STARLINK-35480

ActiefCommunicatieVLEO
NORAD 66242·PAYLOAD·🇺🇸 United States

Gelanceerd Oct 29, 2025 vanaf Cape Canaveral Space Force Station

Loading…

Volgende Passages (komende 24 uur)

TLE

VersSource: CelesTrak SupGP

Epoch: Sep 14, 2026, 15:24 UTC

1 66242C 25245J   26257.64215278  .00028698  00000+0  84761-3 0  2573
2 66242  53.1576 124.9126 0001264 100.0651 293.0407 15.34386481    19

Volg STARLINK-35480 in realtime met AllMySat

Download on the App Store